{"data":{"norad_id":69042,"intl_designator":"2026-101T","name":"STARLINK-37644","alt_names":[],"object_type":"PAYLOAD","status":"ACTIVE","operator":null,"country":"US","launch_date":"2026-05-06","launch_site_code":"AFWTR","launch_vehicle":null,"mission":null,"orbit_class":"UNKNOWN","rcs_meters":null,"size_class":null,"mass_kg":null,"dimensions":null,"purposes":["comms"],"wikipedia_slug":null,"has_3d_model":false,"image_url":null,"decayed_at":null,"tle_current":{"epoch":"2026-05-25T04:47:01.253184Z","epoch_age_seconds":64615,"freshness":"FRESH","line1":"1 69042U 26101T   26145.19932006 -.00828645  00000+0 -64047-2 0  9996","line2":"2 69042  97.2846 359.9819 0000695 124.6315 235.5015 15.74132926  3021","mean_motion":15.74132926,"eccentricity":6.95e-5,"inclination_deg":97.2846,"raan_deg":359.9819,"arg_perigee_deg":124.6315,"mean_anomaly_deg":235.5015,"bstar":-0.0064047,"rev_number":302,"period_min":91.478932701011,"perigee_km":346.63226975131,"apogee_km":347.56707764895,"semimajor_km":6725.2366737001,"source":"CELESTRAK","updated_at":"2026-05-25T13:38:22.099798Z"}}}